Vertical_Velocity
0 -0 -0 -3 6 5 1 -0 2 2 2 2 0 -0 1 2 3 2 2 -2 0 0 2 1 -0 1 -0 1 -0 -3 -3 -1 -1 1 -3 -0 -0 -0 1 0 -3 2 -0
-2 -2 -1 1 -4 4 -1 1 3 1 2 -0 -1 -1 -1 0 1 1 2 2 -1 3 1 1 1 1 -1 -2 -1 2 1 -0 -2 -2 5 -1 1 -1 -1 -0 2 -2 1
-0 1 -0 -1 -2 -1 4 1 -1 -0 -3 -0 1 -1 -0 -0 0 -0 0 3 8 4 3 1 0 -3 -2 -1 -1 -1 1 2 1 -0 -0 2 -1 -2 -1 -2 1 0 0
-2 -4 -1 -1 -1 -2 -2 1 5 1 2 1 -1 -2 -1 -1 1 2 3 3 3 3 4 1 1 1 2 5 5 1 3 4 1 -1 2 3 1 -0 2 0 -0 -1 1
-1 -0 -2 -1 -1 -3 -3 -1 -3 0 2 2 -1 1 1 -0 -2 -1 3 5 2 1 1 2 3 1 -0 -1 2 -1 1 1 1 2 -0 -1 0 1 -0 -1 1 -1 0
2 -1 -1 -3 -1 0 -0 -1 -1 -0 1 2 0 0 1 -1 1 2 0 -1 -0 1 2 1 -2 4 2 2 -3 -1 1 -1 1 -1 0 -1 -1 -1 -2 -2 -1 -3 -5
0 -1 -0 -2 -0 -1 -1 -2 -1 -2 -0 0 1 1 1 1 0 -2 -0 0 -1 -0 -1 2 -2 -3 -2 -1 -1 -0 -1 -1 -1 -2 -0 -1 -1 -2 0 0 -1 -0 -1
2 -2 -0 -1 0 0 1 1 -1 0 -1 -1 0 1 -1 -1 -1 -2 0 -1 -1 -1 -1 -0 -1 -1 -2 -1 -1 -2 -2 -2 -2 -1 -1 0 -0 -0 -1 -0 0 -0 -3
2 -1 -1 1 -2 -1 -1 1 1 1 0 1 -1 -1 -1 -0 0 1 -1 -0 -0 -2 -0 -0 -2 -1 -1 -1 1 -1 -0 -1 -1 -1 -2 -1 1 2 0 -2 -2 -2 -4
-2 -2 1 -1 1 -0 3 1 -1 2 4 1 2 1 -1 0 -0 1 3 1 1 2 1 2 1 -0 -0 -0 1 -2 -1 -0 -1 -1 1 -1 -0 -0 4 2 -0 -2 -1
1 2 0 -0 1 -2 -2 -2 1 0 -2 2 0 3 2 -0 1 3 2 3 1 0 1 -0 -0 -0 -1 -0 -0 0 2 2 1 2 1 0 0 1 4 -2 -3 -2 2
-1 -1 0 -1 -0 0 1 -3 -1 0 1 0 -1 0 2 1 2 2 1 -0 1 1 0 0 1 1 1 -0 2 5 2 1 -1 -2 0 2 -3 1 -4 2 0 1 -2
-1 -2 -2 -1 8 5 29 15 7 7 11 3 3 19 2 -1 6 -1 -0 1 4 -2 2 2 4 1 1 4 1 -2 -1 -2 -0 -3 -0 -0 0 1 -5 -0 -3 2 -2
-0 -2 12 25 19 7 8 7 4 2 4 7 4 -1 0 4 8 2 5 9 5 9 3 0 1 5 5 4 -0 0 -0 -4 2 1 -2 -4 -1 -1 0 -0 -3 -5 -4
1 -0 -2 2 2 -1 -4 -1 -3 -5 -6 -4 3 -9 -8 2 19 2 -2 -3 0 0 7 7 7 5 6 3 -3 -6 -5 -0 -3 -1 -1 -0 0 -2 -3 -4 -2 -3 -3
0 1 2 -1 -2 -1 -1 -3 -3 -1 0 -0 -1 2 9 3 1 4 -0 -1 0 1 -2 2 -5 -5 -7 -3 -2 -2 -1 -1 2 -1 -3 -2 -2 -0 -0 -0 0 -0 -1
0 1 -0 0 -1 -0 -0 1 -1 -0 1 0 -1 -2 -3 -5 -2 -2 -4 -0 -1 0 -1 0 -4 -3 -1 1 0 -0 1 3 2 -0 -1 -2 -2 -2 -1 -0 1 1 0
-1 1 1 1 0 -0 -1 1 1 1 -1 -1 -1 -2 -2 -2 -1 -3 -2 -1 -2 -3 -2 -2 -2 -3 -2 -2 -2 -2 -2 -1 -2 -2 -1 -0 1 0 -1 -1 -1 -1 -0
0 1 1 2 1 0 -2 -1 -3 -2 -2 -1 0 5 3 1 -1 -1 -0 1 -0 1 0 1 -3 -2 -2 0 -0 -0 0 1 1 1 -0 -1 -2 -2 0 -1 -1 -2 1
0 -1 -2 -1 -3 -1 -0 -1 -2 -2 -3 -6 -8 -9 -7 -5 -3 -1 -0 -1 0 -1 1 0 1 0 0 0 1 -1 -1 -1 -0 -1 -1 -1 -1 -1 -0 0 -1 -1 2
-1 -1 -0 -1 -1 2 4 0 1 -1 2 2 2 1 0 0 -1 -3 -3 -1 -2 -1 -0 0 0 3 2 2 1 1 1 1 2 1 -1 1 0 -1 -1 -0 1 0 1
-2 -1 0 -1 -3 1 -2 2 -1 2 0 -2 -2 -2 -1 -1 -2 -3 -5 -4 -4 -3 -3 -3 -2 -2 -0 1 1 1 2 3 3 2 1 -0 -0 -1 -0 -0 0 1 1
-1 -2 -3 -3 -2 -3 -1 -3 -2 -3 -3 -3 -3 -4 -4 -4 -5 -5 -4 -4 -5 -6 -7 -7 -6 -5 -3 -3 -1 1 2 3 3 4 2 2 3 0 -0 1 0 0 1
-3 -2 -1 -1 -2 -0 -3 -3 -4 -4 -3 -2 -3 -4 -3 -3 -2 -3 -4 -3 -3 -3 -4 -4 -4 -3 -2 -1 -0 1 2 4 3 1 1 1 1 1 1 1 0 -1 -0
1 1 -1 -1 -2 -4 -4 -4 -4 -3 -3 -4 -5 -5 -4 -3 -4 -3 -3 -3 -3 -3 -3 -4 -4 -2 -2 -1 -0 1 2 3 2 2 1 1 1 2 2 1 1 1 1
-0 -2 -2 -2 -3 -4 -4 -3 -2 -3 -5 -4 -3 -3 -3 -3 -2 -2 -3 -3 -3 -3 -3 -3 -2 -3 -2 -1 0 2 2 3 2 2 1 1 2 3 2 1 1 1 0
Height
5818 5812 5809 5806 5803 5804 5806 5807 5810 5812 5814 5817 5819 5822 5824 5826 5828 5831 5835 5838 5841 5843 5844 5845 5846 5848 5850 5851 5852 5852 5852 5852 5851 5851 5848 5848 5848 5847 5846 5845 5845 5845 5845
5819 5816 5812 5809 5808 5805 5806 5808 5810 5811 5814 5815 5817 5820 5822 5823 5825 5827 5831 5834 5836 5838 5839 5840 5841 5843 5844 5846 5846 5846 5845 5844 5843 5841 5841 5839 5839 5838 5837 5837 5837 5837 5838
5821 5817 5815 5812 5811 5809 5809 5809 5809 5810 5811 5813 5814 5815 5817 5819 5821 5823 5826 5829 5830 5831 5833 5835 5837 5837 5838 5838 5838 5838 5837 5836 5835 5834 5832 5831 5830 5830 5829 5828 5829 5829 5830
5821 5819 5816 5814 5813 5812 5812 5810 5809 5809 5810 5810 5811 5812 5814 5815 5817 5818 5820 5822 5824 5825 5827 5829 5830 5830 5831 5830 5829 5829 5828 5828 5827 5826 5823 5822 5822 5821 5821 5821 5821 5820 5821
5819 5816 5815 5814 5813 5812 5811 5810 5809 5809 5809 5809 5810 5810 5810 5812 5813 5815 5817 5818 5820 5821 5821 5822 5822 5823 5823 5822 5822 5821 5821 5819 5818 5817 5816 5816 5815 5815 5814 5814 5815 5813 5813
5816 5815 5812 5810 5810 5810 5809 5808 5808 5807 5807 5808 5807 5807 5807 5808 5809 5810 5811 5812 5813 5814 5814 5815 5814 5815 5815 5816 5815 5815 5815 5814 5814 5813 5812 5811 5810 5809 5809 5808 5807 5806 5804
5812 5811 5809 5807 5806 5805 5805 5805 5805 5805 5805 5805 5806 5806 5805 5806 5806 5806 5807 5807 5808 5808 5809 5810 5810 5810 5810 5810 5809 5809 5808 5807 5807 5806 5805 5804 5803 5802 5801 5799 5798 5796 5794
5805 5804 5803 5802 5802 5802 5802 5801 5801 5801 5802 5802 5803 5802 5802 5803 5804 5803 5803 5803 5804 5804 5804 5804 5804 5804 5804 5803 5802 5802 5801 5800 5799 5798 5797 5795 5794 5792 5791 5789 5787 5784 5782
5798 5797 5797 5796 5797 5797 5798 5798 5797 5797 5796 5797 5797 5796 5797 5797 5798 5799 5799 5800 5799 5799 5798 5798 5798 5797 5796 5796 5795 5794 5793 5792 5790 5789 5788 5786 5784 5782 5780 5777 5774 5772 5768
5793 5791 5791 5792 5792 5791 5792 5791 5791 5791 5791 5791 5791 5790 5789 5789 5791 5791 5791 5792 5792 5792 5792 5791 5791 5790 5790 5788 5787 5786 5784 5782 5780 5778 5777 5774 5773 5770 5767 5764 5761 5758 5755
5783 5784 5785 5785 5786 5787 5786 5784 5783 5785 5785 5786 5785 5785 5783 5783 5784 5785 5785 5785 5784 5784 5784 5783 5781 5780 5779 5778 5777 5774 5772 5770 5768 5766 5764 5761 5758 5756 5754 5750 5747 5744 5742
5780 5780 5781 5781 5780 5780 5780 5778 5777 5778 5779 5779 5778 5777 5777 5777 5777 5777 5777 5777 5775 5774 5773 5772 5771 5769 5767 5765 5764 5762 5759 5757 5755 5754 5751 5749 5745 5743 5741 5739 5735 5731 5727
5774 5776 5776 5775 5773 5774 5770 5768 5768 5770 5770 5770 5770 5769 5769 5769 5769 5769 5768 5767 5765 5764 5763 5762 5760 5758 5755 5753 5752 5749 5746 5745 5742 5739 5737 5736 5733 5731 5728 5724 5720 5717 5713
5768 5770 5770 5769 5767 5767 5766 5766 5765 5764 5762 5761 5761 5761 5760 5760 5760 5760 5759 5758 5757 5755 5752 5749 5747 5745 5741 5739 5737 5735 5733 5732 5729 5727 5724 5723 5719 5715 5712 5708 5704 5700 5695
5761 5762 5763 5763 5761 5760 5760 5759 5758 5757 5756 5755 5753 5754 5753 5754 5753 5751 5749 5748 5745 5742 5740 5737 5735 5732 5729 5726 5723 5721 5721 5718 5715 5712 5709 5706 5703 5699 5695 5691 5685 5680 5674
5756 5756 5756 5755 5755 5755 5754 5752 5751 5750 5749 5748 5748 5748 5747 5745 5743 5741 5739 5736 5733 5731 5729 5726 5722 5719 5716 5714 5712 5710 5707 5703 5699 5696 5692 5688 5685 5681 5676 5671 5666 5661 5656
5749 5750 5749 5749 5749 5749 5748 5747 5746 5745 5743 5742 5741 5740 5739 5737 5735 5733 5729 5727 5725 5722 5718 5715 5711 5708 5705 5701 5697 5694 5690 5685 5681 5678 5675 5671 5667 5662 5657 5652 5648 5644 5640
5745 5744 5744 5743 5743 5742 5741 5740 5739 5738 5736 5735 5734 5732 5731 5729 5726 5723 5720 5718 5714 5711 5707 5702 5698 5694 5689 5685 5680 5676 5672 5668 5664 5659 5655 5651 5647 5643 5639 5636 5633 5629 5627
5740 5739 5739 5738 5738 5737 5735 5733 5732 5731 5729 5727 5726 5724 5722 5719 5715 5712 5708 5704 5699 5694 5688 5683 5678 5673 5668 5663 5659 5655 5651 5647 5644 5640 5637 5634 5631 5629 5626 5623 5620 5617 5615
5736 5735 5735 5734 5733 5732 5731 5729 5726 5724 5721 5718 5715 5711 5707 5703 5699 5694 5689 5684 5678 5673 5668 5663 5658 5653 5648 5643 5639 5636 5634 5631 5627 5624 5622 5621 5619 5617 5615 5612 5610 5607 5606
5731 5731 5730 5729 5729 5728 5726 5723 5720 5716 5712 5708 5704 5700 5696 5691 5686 5680 5673 5667 5661 5655 5649 5642 5637 5631 5627 5623 5619 5617 5615 5614 5613 5611 5611 5609 5607 5606 5604 5602 5600 5599 5598
5726 5726 5725 5723 5722 5720 5716 5712 5709 5705 5702 5698 5693 5687 5681 5675 5669 5663 5657 5650 5643 5637 5630 5623 5617 5611 5606 5603 5601 5600 5599 5599 5599 5599 5599 5598 5597 5597 5595 5593 5592 5591 5590
5722 5721 5719 5717 5714 5711 5706 5702 5699 5695 5691 5686 5680 5674 5668 5661 5654 5647 5640 5633 5627 5620 5614 5608 5602 5597 5592 5588 5586 5586 5586 5586 5587 5587 5588 5588 5588 5587 5586 5585 5584 5584 5582
5716 5714 5712 5709 5705 5702 5699 5694 5689 5683 5678 5672 5666 5661 5655 5648 5642 5636 5629 5623 5617 5612 5606 5600 5595 5589 5585 5580 5578 5576 5575 5576 5577 5578 5579 5580 5580 5579 5579 5579 5578 5576 5575
5709 5706 5704 5701 5696 5692 5687 5682 5677 5671 5666 5661 5656 5650 5645 5639 5633 5627 5621 5616 5610 5604 5598 5592 5586 5582 5577 5574 5571 5569 5569 5569 5570 5571 5572 5573 5573 5573 5572 5572 5572 5571 5570
5701 5698 5694 5690 5686 5681 5676 5671 5665 5660 5655 5651 5646 5641 5636 5630 5624 5618 5613 5607 5601 5595 5589 5584 5579 5575 5571 5568 5565 5564 5564 5564 5564 5565 5566 5567 5567 5567 5567 5567 5566 5566 5565